Location: Tuebingen alte Sternwarte
(48.5376°N, 9.0555°E)
Time: 21:44:21
(UTC+02:00)

OTV 5 (USA 277) - Pass Details

Date: 19 June 2018
Orbit: 312 x 321 km, 54.5° (Epoch: 05 July)

Event Time Altitude Azimuth Distance (km) Brightness Sun altitude
Rises 00:28:04 0° 283° (WNW) 2,046 ? -16.9°
Reaches altitude 10° 00:30:16 10° 300° (WNW) 1,218 ? -17.0°
Maximum altitude 00:32:29 22° 355° (N) 752 ? -17.1°
Drops below altitude 10° 00:34:43 10° 51° (NE) 1,223 ? -17.2°
Sets 00:36:56 0° 67° (ENE) 2,056 ? -17.2°
